Weather in Vinh

Vietnam     18°40′24″N   105°40′56″E
temp.,
°C
wind,
m/s
gust,
m/s
humid.,
%
clouds,
%
prec.,
mm/h
press.,
hPa
HPBL,
m
17 may, mon
mon1701:00+28s2280100 0.2 100541
04:00+27ssw1182100 0.0 100545
07:00+28sse227933 0.0 1007170
10:00+30ene217128 0.0 1008468
13:00+30e557556 0.0 1005362
16:00+30se897846 0.0 1004493
19:00+26s4777100 0.7 1005178
22:00+27se2380100 0.0 1008171
18 may, tue
tue1801:00+26sw1183100 0.0 100680
04:00+26sw2285100 0.0 100691
07:00+27wsw0181100 0.0 1007176
10:00+29ne117462 0.0 1008431
13:00+30ene43778 0.0 1005457
16:00+30e447980 1.2 1003370
19:00+28se6990100 2.3 1004242
22:00+28s3590100 0.3 1006133
19 may, wed
wed1901:00+27ssw128928 0.3 100473
04:00+27s1288100 0.0 100489
07:00+28w118699 0.0 1006147
10:00+31sse1272100 0.0 1006409
13:00+33ese456488 0.0 1002805
16:00+31ese687296 0.0 1001445
19:00+29se56876 0.0 100298
22:00+29s3374100 0.0 100354
20 may, thu
thu2001:00+28s337797 0.0 100251
04:00+28ssw2376100 0.0 100262
07:00+29sw347495 0.0 1004160
10:00+33wsw466098 0.0 1004513
13:00+36ssw3551100 0.0 1001856
16:00+33ese5766100 0.0 999405
19:00+29ese57855 0.0 1001124
22:00+30sse3379100 0.0 100243
21 may, fri
fri2101:00+29sse3477100 0.0 100148
04:00+29ssw2274100 0.0 100117
07:00+30wsw1172100 0.0 100381
10:00+33sw2461100 0.0 1003478
13:00+35e255466 0.0 10011205
16:00+31e4673100 0.0 999346
19:00+30se3482100 0.0 100073
22:00+30sse3374100 0.0 100128